Flag for U.S.A. Weather past 2 weeks in Pasadena, California, U.S.A.

Now
75 °F

Clear.


Feels Like: 77 °F
Forecast: 67 / 90 °F
Wind: 5 mph from Southeast

Location: Burbank-Glendale-Pasadena Airport

Current Time: Aug 3, 2015 at 11:04:51 PM

Latest Report: Aug 3, 2015 at 9:53 PM


Visibility: 10 mi

Pressure: 29.85 "Hg

Humidity: 58%

Dew point: 59 °F

Location of PasadenaLocation

Historic Weather in Pasadena — Graph

°F

Pasadena temperature yesterday

Maximum temperature yesterday: 89 °F (at 2:53 PM)
Minimum temperature yesterday: 67 °F (at 5:53 AM)
Average temperature yesterday: 76 °F

Past Weeks' High & Low Weather Summary

 TemperatureHumidityPressure
High91 °F (Jul 25, 3:53 PM)90% (Jul 21, 2:53 AM)30.05 "Hg (Jul 21, 2:53 AM)
Low64 °F (Jul 28, 5:01 AM)26% (Jul 25, 3:53 PM)29.78 "Hg (Aug 2, 6:53 PM)
Average76 °F64%29.90 "Hg
* Reported Jul 19 9:53 PM — Aug 3 9:53 PM, Pasadena, Weather by CustomWeather, © 2015

Note: Actual official high and low records may vary slightly from our data, if they occured in-between our weather recording intervals... More about our weather records

Advertising

Pasadena weather history for previous 24 hours

 ConditionsComfort  
Time TempWeatherWind HumidityBarometerVisibility
9:53 PM
Mon, Aug 3
75 °FClear.5 mph58%29.85 "Hg10 mi
8:53 PM77 °FClear.3 mph54%29.83 "Hg10 mi
7:53 PM77 °FSunny.No wind52%29.82 "Hg10 mi
6:53 PM78 °FSunny.8 mph54%29.81 "Hg10 mi
5:53 PM83 °FSunny.10 mph48%29.81 "Hg10 mi
4:53 PM85 °FSunny.12 mph43%29.82 "Hg10 mi
3:53 PM87 °FSunny.12 mph43%29.81 "Hg10 mi
2:53 PM85 °FSunny.10 mph48%29.83 "Hg10 mi
1:53 PM85 °FSunny.10 mph48%29.85 "Hg10 mi
12:53 PM87 °FSunny.5 mph43%29.85 "Hg10 mi
11:53 AM84 °FSunny.6 mph49%29.86 "Hg10 mi
10:53 AM83 °FSunny.3 mph50%29.87 "Hg10 mi
9:53 AM77 °FWarm.3 mph58%29.88 "HgN/A
8:53 AM72 °FSunny.3 mph71%29.87 "Hg10 mi
7:53 AM69 °FSunny.No wind76%29.87 "Hg10 mi
6:53 AM67 °FClear.No wind76%29.86 "Hg10 mi
5:53 AM67 °FClear.3 mph79%29.85 "Hg10 mi
4:53 AM68 °FClear.No wind78%29.84 "Hg10 mi
3:53 AM68 °FClear.3 mph82%29.84 "Hg10 mi
2:53 AM69 °FClear.No wind79%29.83 "Hg10 mi
1:53 AM69 °FClear.3 mph79%29.83 "Hg10 mi
12:53 AM70 °FClear.5 mph73%29.83 "Hg10 mi
11:53 PM
Sun, Aug 2
71 °FClear.5 mph73%29.83 "Hg10 mi
Weather by CustomWeather, © 2015

See weather overviewHow to use our weather pages